Find KUIPER-00364

NORAD ID: 68867 Int'l Des: 2026-095D Owner: KUIP Country: US Constellation: amazon-leo operational
LEOCIRCULAR

Current View

Loading 3D Globe...

About KUIPER-00364

KUIPER-00364 (NORAD 68867) is a amazon-leo constellation satellite launched Apr 28, 2026 by KUIP of US. It operates in LEO, CIRCULAR orbit with a mass of 490.00 kg.

About KUIPER-00364

Description loading...

Upcoming Passes

Passes for default location (London). Set your location on the main map for personalized predictions.

Altitude History

Loading altitude history...

Two-Line Element Set

1 68867U 26095D 26168.91668981 -.00032999 00000-0 -32988-2 0 9994
2 68867 51.8976 242.4917 0003960 30.2252 304.8989 14.90950522 4972
Epoch: Jun 17, 2026 • Age: 12 hours

Current Status

Altitude 613.7 km
Velocity 7.55 km/s
Sub-Earth Point -48.23°S, 56.89°E
Launch Date Apr 28, 2026
Age 0.1 years
Type internet

Technical Details

Classification Payload
Mass 490.00 kg
Dry Mass 490.00 kg
Total Mass 490.00 kg
Length 1.80 m
Diameter 0.70 m
Span 5.00 m
Shape Box + 2 pan
Manufacturer KUIP
Bus Type Kuiper
Phase Status In Orbit
Owner/State KUIP/US

Most Searched